Location: Camoruquito
(9.9001°N, 67.3564°W)
Time: 12:07:56
(UTC+00:00)

CZ-3 R/B - Pass Details

Date: 14 April 2024
Orbit: 492 x 10075 km, 28.3° (Epoch: 30 May)

Event Time Altitude Azimuth Distance (km) Brightness Sun altitude
Rises 06:31:23 0° 240° (WSW) 15,112 7.2 -54.0°
Enters shadow 06:41:13 - 240° (WSW) 14,235 7.0 -51.9°
Exits shadow 07:33:50 57° 253° (WSW) 5,257 4.7 -40.2°
Maximum altitude 07:42:16 81° 329° (NNW) 3,498 4.0 -38.3°
Drops below altitude 10° 07:53:56 10° 58° (ENE) 3,956 5.4 -35.6°
Sets 07:55:56 0° 59° (ENE) 4,496 5.9 -35.1°
